Погода в Пальцеве

Россия / Псковская область     57°15′15″N   28°04′48″E
темп.,
°C
ветер,
м/с
пор.,
м/с
влажн.,
%
обл.,
%
осадки,
мм/ч
давл.,
гПа
погр.,
м
17 апреля, сб
сб1700:00+9св51177100 0.0 1023477
03:00+7св5117978 0.0 1023417
06:00+5св51176100 0.0 1023386
09:00+7св5972100 0.0 1024496
12:00+11всв5768100 0.0 1024788
15:00+13всв576399 0.0 10241277
18:00+13св5868100 0.0 10241027
21:00+11ссв4107069 0.0 1024425
18 апреля, вс
вс1800:00+9св4117487 0.0 1025337
03:00+6ссв4107615 0.0 1025250
06:00+5ссв410805 0.0 1025295
09:00+8св59640 0.0 1025508
12:00+13св68440 0.0 10251180
15:00+14всв68395 0.0 10241696
18:00+14св57445 0.0 10241872
21:00+9св410605 0.0 1025250
19 апреля, пн
пн1900:00+7св311685 0.0 1026250
03:00+5св38775 0.0 1026186
06:00+3св37865 0.0 1026160
09:00+8всв46685 0.0 1027448
12:00+13всв58497 0.0 10261743
15:00+13всв6745100 0.0 10251916
18:00+11всв4858100 0.0 1024823
21:00+9всв3866100 0.0 1024304
20 апреля, вт
вт2000:00+8всв497198 0.1 1023452
03:00+4св369096 0.1 1022159
06:00+6св3783100 0.0 1021388
09:00+7всв4774100 0.0 1020619
12:00+8в4667100 0.1 10181207
15:00+9в4665100 0.1 10171288
18:00+10св3758100 0.0 10141194
21:00+8ссв3864100 0.0 1011262
21 апреля, ср
ср2100:00+6ссв51068100 0.0 1008534
03:00+4с61097100 2.7 1004896
06:00+4ссв61097100 4.4 1001830
09:00+3ссз5897100 6.8 999588
12:00+3ссз4799100 0.5 998440
15:00+3сз3797100 1.4 999539
18:00+3зсз4897100 0.4 1000566
21:00+2з5997100 0.6 1002683